x

Upper Potomac, Md (44061) Weather Station

8:40am - Wed 24th Aug 2016 All times are EDT. -4 hours from GMT.

  • Wind
    7mph, 9mph gusts
  • Air Temp 72°f
  • Sea Pressure 1026.3mb
  • Upper Potomac, Md
  • Upper Potomac, Md

More Historic Weather Station data

Upgrade to MSW Pro to gain access to the past 30 days of data for over 8000 Wavebouys and Weather Stations around the globe.

Join Pro

Comparision Forecast

View Surf forecast
   
Wed 08/24 8:40am 7 9 mph 1026.3mb - 72f
8:30am 7 9 mph 1026.2mb - 72f
8:20am 7 9 mph 1026.1mb - 72f
8:10am 4 7 mph 1026mb - 72f
8:00am 4 9 mph 1025.9mb 82f 71f
7:50am 4 7 mph 1025.8mb - 71f
7:40am 7 9 mph 1025.9mb - 71f
7:30am 4 7 mph 1026mb - 71f
7:20am 4
mph
1026mb - 70f
7:10am 4
mph
1025.8mb - 71f
7:00am 4
mph
1025.8mb 83f 70f
6:50am 4 7 mph 1025.7mb - 70f
6:40am 4 7 mph 1025.7mb - 70f
6:30am 4
mph
1025.6mb - 71f
6:20am 4 7 mph 1025.5mb - 71f
6:10am 4
mph
1025.5mb - 71f
6:00am 4
mph
1025.4mb 83f 71f
5:50am 4
mph
1025.3mb - 71f
5:40am 4
mph
1025.2mb - 71f
5:30am 4
mph
1025mb - 71f
5:20am 4
mph
1025mb - 71f
5:10am 4
mph
1024.9mb - 71f
5:00am 4 7 mph 1024.8mb 83f 71f
4:50am 4 7 mph 1024.8mb - 71f
4:40am 4 7 mph 1024.8mb - 71f
4:30am 4 7 mph 1024.8mb - 71f
4:20am 4 7 mph 1024.7mb - 72f
4:10am 4 7 mph 1024.7mb - 72f
4:00am 4 7 mph 1024.7mb 83f 72f
3:50am 4 7 mph 1024.7mb - 72f
3:40am 4 7 mph 1024.8mb - 72f
3:30am 4 7 mph 1024.9mb - 73f
3:20am 7 9 mph 1024.8mb - 73f
3:10am 7 9 mph 1024.8mb - 73f
3:00am 7 9 mph 1024.9mb 83f 73f
2:50am 4 7 mph 1024.9mb - 72f
2:40am 4 7 mph 1025mb - 72f
2:30am 7 9 mph 1025mb - 72f
2:20am 4 7 mph 1025mb - 73f
2:10am 4
mph
1025mb - 73f
2:00am 4 7 mph 1025mb 83f 73f
1:50am 4
mph
1025mb - 73f
1:40am 4 7 mph 1025.1mb - 73f
1:30am 4
mph
1025.1mb - 73f
1:20am 4
mph
1025.2mb - 74f
1:10am 2 4 mph 1025.3mb - 74f
1:00am 4
mph
1025.3mb 84f 74f
12:50am 4 7 mph 1025.3mb - 74f
12:40am 4 7 mph 1025.4mb - 74f
12:30am 2 4 mph 1025.4mb - 74f
12:20am 4 7 mph 1025.4mb - 74f
12:10am 4 7 mph 1025.3mb - 74f
12:00am 4 7 mph 1025.2mb 84f 74f
Tue 08/23 11:50pm 7
mph
1025.3mb - 74f
11:40pm 7
mph
1025.3mb - 75f
11:30pm 7
mph
1025.3mb - 75f
11:20pm 7
mph
1025.3mb - 75f
11:10pm 4 7 mph 1025.3mb - 74f
11:00pm 7
mph
1025.3mb 83f 74f
10:50pm 7
mph
1025.2mb - 74f
10:40pm 4 7 mph 1025.2mb - 74f
10:30pm 4 7 mph 1025mb - 74f
10:20pm 4 7 mph 1025mb - 75f
10:10pm 4 7 mph 1025mb - 75f
10:00pm 4 7 mph 1025mb 83f 75f
9:50pm 7 9 mph 1025mb - 75f
9:40pm 9 11 mph 1024.9mb - 76f
9:30pm 9 11 mph 1024.8mb - 76f
9:20pm 9 13 mph 1024.8mb - 76f
9:10pm 9 11 mph 1024.6mb - 76f
9:00pm 9 11 mph 1024.5mb 83f 76f
8:50pm 11
mph
1024.4mb - 77f
8:40pm 11
mph
1024.2mb - 77f
8:30pm 11 13 mph 1024.2mb - 77f
8:20pm 11 13 mph 1024mb - 78f
8:10pm 7 11 mph 1024mb - 80f
8:00pm 7 9 mph 1023.9mb 84f 81f
7:50pm 7 9 mph 1023.9mb - 81f
7:40pm 7 9 mph 1023.9mb - 82f
7:30pm 7 9 mph 1023.9mb - 82f
7:20pm 7 9 mph 1023.8mb - 82f
7:10pm 7 9 mph 1023.8mb - 82f
7:00pm 7 9 mph 1023.8mb 84f 82f
6:50pm 7 11 mph 1023.9mb - 82f
6:40pm 9 11 mph 1023.9mb - 82f
6:30pm 7 11 mph 1024mb - 82f
6:20pm 7 11 mph 1024mb - 82f
6:10pm 7 9 mph 1024mb - 82f
6:00pm 7 9 mph 1024.1mb 83f 82f
5:50pm 7 9 mph 1024.2mb - 82f
5:40pm 9 11 mph 1024.2mb - 82f
5:30pm 7 11 mph 1024.3mb - 82f
5:20pm 7 11 mph 1024.3mb - 82f
5:10pm 7 13 mph 1024.4mb - 82f
5:00pm 9 11 mph 1024.5mb 84f 82f
4:50pm 7 11 mph 1024.6mb - 82f
4:40pm 7 11 mph 1024.7mb - 82f
4:30pm 9 11 mph 1024.8mb - 82f
4:20pm 7 11 mph 1024.9mb - 81f
4:10pm 9 11 mph 1025mb - 81f
4:00pm 9 13 mph 1025mb 84f 81f
3:50pm 7 9 mph 1025mb - 81f
3:40pm 4 9 mph 1025.2mb - 81f
3:30pm 4 9 mph 1025.3mb - 81f
3:20pm 7 9 mph 1025.4mb - 81f
3:10pm 4 9 mph 1025.5mb - 81f
3:00pm 4 7 mph 1025.6mb 84f 81f
2:50pm 4 7 mph 1025.6mb - 81f
2:40pm 4 7 mph 1025.8mb - 81f
2:30pm 4 7 mph 1025.9mb - 81f
2:20pm 4 7 mph 1026mb - 80f
2:10pm 4 7 mph 1026.2mb - 80f
2:00pm 4 9 mph 1026.2mb 84f 80f
1:50pm 4 7 mph 1026.3mb - 80f
1:40pm 2 7 mph 1026.3mb - 80f
1:30pm 2 4 mph 1026.4mb - 80f
1:20pm 4 7 mph 1026.5mb - 79f
1:10pm 4 7 mph 1026.5mb - 79f
1:00pm 4 7 mph 1026.4mb 84f 79f
12:50pm 4 9 mph 1026.4mb - 78f
12:40pm 7 9 mph 1026.5mb - 78f
12:30pm 4 9 mph 1026.6mb - 78f
12:20pm 7 9 mph 1026.7mb - 78f
12:10pm 4 9 mph 1026.7mb - 78f
12:00pm 4 7 mph 1026.7mb 84f 78f
11:50am 4 7 mph 1026.8mb - 78f
11:40am  -  4 mph 1026.8mb - 78f
11:30am 4 7 mph 1026.9mb - 77f
11:20am 4 7 mph 1027mb - 77f
11:10am 4 7 mph 1027mb - 77f
11:00am 2 7 mph 1027mb 83f 77f
10:50am 4 7 mph 1027mb - 77f
10:40am 4 9 mph 1027.1mb - 76f
10:30am 4 7 mph 1027mb - 76f
10:20am 4 9 mph 1026.9mb - 76f
10:10am 7 9 mph 1026.9mb - 76f
10:00am 7 9 mph 1027mb 83f 75f
9:50am 7 9 mph 1026.9mb - 75f
9:40am 7 9 mph 1026.8mb - 75f
9:30am 9 11 mph 1026.7mb - 75f
9:20am 7 13 mph 1026.7mb - 75f
9:10am 4 9 mph 1026.7mb - 75f
9:00am 4 7 mph 1026.7mb 83f 74f
8:50am 4
mph
1026.7mb - 74f
8:40am 4
mph
1026.7mb - 74f
8:30am 2 4 mph 1026.6mb - 73f
8:20am 4 7 mph 1026.6mb - 73f
8:10am 2 4 mph 1026.5mb - 73f
8:00am 2 7 mph 1026.5mb 83f 73f
7:50am 4 7 mph 1026.4mb - 72f
7:40am 4 7 mph 1026.4mb - 72f
7:30am 2 7 mph 1026.4mb - 72f
7:20am 4 7 mph 1026.2mb - 71f
7:10am 4 7 mph 1026.2mb - 71f
7:00am 2 7 mph 1026.1mb 83f 71f
6:50am 4
mph
1026mb - 70f
6:40am 4 7 mph 1025.9mb - 70f
6:30am 4 7 mph 1025.8mb - 70f
6:20am 4 7 mph 1025.7mb - 70f
6:10am 4 7 mph 1025.6mb - 70f
6:00am 4 7 mph 1025.4mb 83f 70f
5:50am 4 7 mph 1025.2mb - 70f
5:40am 4 7 mph 1025mb - 71f
5:30am 4 9 mph 1024.9mb - 71f
5:20am 4 7 mph 1024.8mb - 71f
5:10am 4 7 mph 1024.8mb - 71f
5:00am 4 7 mph 1024.7mb 83f 71f
4:50am 4 7 mph 1024.6mb - 71f
4:40am 4 7 mph 1024.5mb - 72f
4:30am 4 7 mph 1024.4mb - 72f
4:20am 4
mph
1024.3mb - 72f
4:10am 4 7 mph 1024.2mb - 72f
4:00am 4 7 mph 1024mb 83f 72f
3:50am 4 7 mph 1023.9mb - 72f
3:40am 4 7 mph 1023.9mb - 72f
3:30am 4 7 mph 1023.8mb - 73f
3:20am 4 7 mph 1023.8mb - 73f
3:10am 4 9 mph 1023.7mb - 73f
3:00am 4 7 mph 1023.7mb 84f 73f
2:50am 4 7 mph 1023.7mb - 73f
2:40am 4 7 mph 1023.6mb - 73f
2:30am 4 7 mph 1023.6mb - 73f
2:20am 7 9 mph 1023.5mb - 74f
2:10am 4 9 mph 1023.4mb - 74f
2:00am 4 7 mph 1023.3mb 84f 74f
1:50am 4 7 mph 1023.2mb - 74f
1:40am 4 7 mph 1023.2mb - 74f
1:30am 4 7 mph 1023.2mb - 74f
1:20am 4 7 mph 1023.2mb - 74f
1:10am 4 7 mph 1023.1mb - 75f
1:00am 4 7 mph 1023.1mb 84f 75f
12:50am 4 7 mph 1023mb - 75f
12:40am 4 7 mph 1022.9mb - 76f
12:30am 4 7 mph 1022.9mb - 76f
12:20am 4
mph
1022.8mb - 76f
12:10am 2 4 mph 1022.7mb - 76f
12:00am 4 7 mph 1022.5mb 84f 76f
Mon 08/22 11:50pm 4
mph
1022.5mb - 76f
11:40pm 4
mph
1022.4mb - 77f
11:30pm 2 4 mph 1022.4mb - 78f
11:20pm 2 4 mph 1022.4mb - 78f
11:10pm  -  2 mph 1022.3mb - 78f
11:00pm  -  2 mph 1022.2mb 84f 78f
10:50pm 2 4 mph 1022.1mb - 78f
10:40pm 2
mph
1021.9mb - 78f
10:30pm 2 4 mph 1021.8mb - 78f
10:20pm 2 7 mph 1021.7mb - 79f
10:10pm 2 4 mph 1021.6mb - 79f
10:00pm 2 4 mph 1021.5mb 84f 79f
9:50pm 2
mph
1021.4mb - 80f
9:40pm 2 4 mph 1021.3mb - 80f
9:30pm 2 4 mph 1021.2mb - 80f
9:20pm 2 4 mph 1021.1mb - 80f
9:10pm 4
mph
1020.9mb - 80f
9:00pm 4 7 mph 1020.8mb 84f 80f
8:50pm 4
mph
1020.6mb - 81f
8:40pm 4 7 mph 1020.4mb - 81f
8:30pm 4 7 mph 1020.3mb - 81f
8:20pm 4 9 mph 1020.1mb - 81f
8:10pm 7 9 mph 1019.9mb - 81f
8:00pm 7 9 mph 1019.8mb 84f 81f
7:50pm 4 9 mph 1019.7mb - 82f
7:40pm 7 9 mph 1019.6mb - 82f
7:30pm 7 11 mph 1019.5mb - 82f
7:20pm 7 9 mph 1019.4mb - 83f
7:10pm 7 11 mph 1019.2mb - 83f
7:00pm 7 11 mph 1019.1mb 84f 83f
6:50pm 9 16 mph 1019.1mb - 83f
6:40pm 9 16 mph 1019.1mb - 83f
6:30pm 9 13 mph 1019mb - 83f
6:20pm 11 13 mph 1019mb - 83f
6:10pm 9 13 mph 1018.9mb - 83f
6:00pm 9 13 mph 1018.9mb 84f 83f
5:50pm 9 16 mph 1018.8mb - 83f
5:40pm 11 18 mph 1018.8mb - 83f
5:30pm 9 16 mph 1018.8mb - 83f
5:20pm 11 16 mph 1018.7mb - 83f
5:10pm 9 16 mph 1018.7mb - 83f
5:00pm 9 13 mph 1018.7mb 84f 83f
4:50pm 9 13 mph 1018.7mb - 82f
4:40pm 9 16 mph 1018.7mb - 82f
4:30pm 11 16 mph 1018.7mb - 82f
4:20pm 9 16 mph 1018.7mb - 82f
4:10pm 9 20 mph 1018.6mb - 82f
4:00pm 13 18 mph 1018.6mb 84f 82f
3:50pm 11 18 mph 1018.6mb - 82f
3:40pm 11 16 mph 1018.6mb - 82f
3:30pm 11 22 mph 1018.5mb - 82f
3:20pm 11 18 mph 1018.6mb - 82f
3:10pm 11 18 mph 1018.6mb - 82f
3:00pm 11 20 mph 1018.6mb 85f 82f
2:50pm 11 20 mph 1018.7mb - 81f
2:40pm 9 13 mph 1018.7mb - 81f
2:30pm 11 18 mph 1018.7mb - 81f
2:20pm 9 16 mph 1018.7mb - 81f
2:10pm 9 16 mph 1018.7mb - 80f
2:00pm 11 18 mph 1018.7mb 84f 80f
1:50pm 9 16 mph 1018.6mb - 80f
1:40pm 9 13 mph 1018.6mb - 80f
1:30pm 7 13 mph 1018.6mb - 80f
1:20pm 9 16 mph 1018.6mb - 80f
1:10pm 9 16 mph 1018.5mb - 80f
1:00pm 7 13 mph 1018.5mb 85f 80f
12:50pm 7 13 mph 1018.5mb - 80f
12:40pm 7 13 mph 1018.5mb - 79f
12:30pm 9 13 mph 1018.5mb - 79f
12:20pm 7 13 mph 1018.6mb - 79f
12:10pm 9 11 mph 1018.6mb - 78f
12:00pm 9 16 mph 1018.6mb 85f 78f
11:50am 9 18 mph 1018.5mb - 78f
11:40am 7 13 mph 1018.5mb - 78f
11:30am 7 13 mph 1018.4mb - 78f
11:20am 7 11 mph 1018.3mb - 77f
11:10am 9 16 mph 1018.3mb - 77f
11:00am 9 13 mph 1018.2mb 84f 77f
10:50am 7 13 mph 1018.2mb - 77f
10:40am 9 18 mph 1018.1mb - 77f
10:30am 9 18 mph 1018.1mb - 77f
10:20am 9 13 mph 1017.9mb - 76f
10:10am 11 16 mph 1017.8mb - 76f
10:00am 9 18 mph 1017.6mb 84f 76f
9:50am 7 13 mph 1017.6mb - 76f
9:40am 7 13 mph 1017.5mb - 76f
9:30am 7 11 mph 1017.4mb - 75f
9:20am 9 13 mph 1017.3mb - 75f
9:10am 7 11 mph 1017.2mb - 75f
9:00am 7 9 mph 1017.1mb 84f 74f
8:50am 4 11 mph 1017mb - 75f
8:40am 2 7 mph 1017mb - 74f
8:30am 2 4 mph 1017mb - 74f
8:20am 4 9 mph 1016.8mb - 73f
8:10am 4 7 mph 1016.7mb - 73f
8:00am 4 7 mph 1016.5mb 84f 73f
7:50am 4 7 mph 1016.4mb - 72f
7:40am 4 7 mph 1016.2mb - 72f
7:30am 7
mph
1016mb - 72f
7:20am 4 7 mph 1015.9mb - 72f
7:10am 2 4 mph 1015.9mb - 72f
7:00am 4 7 mph 1015.8mb 84f 71f
6:50am 7 9 mph 1015.7mb - 71f
6:40am 2 7 mph 1015.4mb - 72f
6:30am 4 7 mph 1015.1mb - 72f
6:20am 7 9 mph 1015mb - 72f
6:10am 7 9 mph 1014.8mb - 72f
6:00am 7 9 mph 1014.6mb 84f 72f
5:50am 7 9 mph 1014.5mb - 73f
5:40am 7 11 mph 1014.4mb - 73f
5:30am 9 13 mph 1014.2mb - 73f
5:20am 7 11 mph 1014.1mb - 73f
5:10am 4 9 mph 1014.1mb - 73f
5:00am 9
mph
1014mb 85f 73f
4:50am 9 11 mph 1013.8mb - 73f
4:40am 11 16 mph 1013.6mb - 74f
4:30am 11 18 mph 1013.5mb - 74f
4:20am 4 9 mph 1013.5mb - 74f
4:10am 7 11 mph 1013.4mb - 74f
4:00am 7 9 mph 1013.3mb 85f 74f
3:50am 7 9 mph 1013.3mb - 74f
3:40am 9 11 mph 1013.2mb - 74f
3:30am 9 13 mph 1013.2mb - 74f
3:20am 7 11 mph 1013.2mb - 74f
3:10am 7 9 mph 1013.2mb - 74f
3:00am 7 11 mph 1013.1mb 85f 74f
2:50am 4 7 mph 1013.1mb - 73f
2:40am 7 9 mph 1013.1mb - 73f
2:30am 7 9 mph 1013mb - 74f
2:20am 4 7 mph 1013mb - 73f
2:10am 4 7 mph 1013mb - 74f
2:00am 7 9 mph 1013mb 85f 74f
1:50am 7 9 mph 1012.9mb - 74f
1:40am 4 9 mph 1012.8mb - 75f
1:30am 2 7 mph 1012.8mb - 75f
1:20am 4 7 mph 1012.8mb - 75f
1:10am 4 9 mph 1012.7mb - 76f
1:00am 4 9 mph 1012.6mb 85f 76f
12:50am 4 7 mph 1012.6mb - 76f
12:40am 4 7 mph 1012.5mb - 76f
12:30am 4 9 mph 1012.5mb - 77f
12:20am 4 7 mph 1012.3mb - 77f
12:10am 7 9 mph 1012.2mb - 77f
12:00am 4 7 mph 1012.1mb 86f 77f
Sun 08/21 11:50pm 7 9 mph 1012mb - 77f
11:40pm 7 11 mph 1011.9mb - 77f
11:30pm 7 11 mph 1011.8mb - 78f
11:20pm 4 9 mph 1011.7mb - 78f
11:10pm 4 9 mph 1011.6mb - 78f
11:00pm 4 9 mph 1011.4mb 86f 78f
10:50pm 7 9 mph 1011.4mb - 78f
10:40pm 7 11 mph 1011.2mb - 79f
10:30pm 9 11 mph 1011.2mb - 79f
10:20pm 9 13 mph 1011.1mb - 80f
10:10pm 7 9 mph 1011.1mb - 79f
10:00pm 7 9 mph 1011mb 86f 79f
9:50pm 7 9 mph 1010.8mb - 79f
9:40pm 7
mph
1010.8mb - 79f
9:30pm 4 7 mph 1010.8mb - 79f
9:20pm 7
mph
1010.5mb - 79f
9:10pm 7 9 mph 1010.3mb - 78f
9:00pm 4 9 mph 1010.2mb 85f 78f
8:50pm 2 4 mph 1010.1mb - 78f
8:40pm 4
mph
1009.8mb - 78f
8:30pm 4 7 mph 1009.7mb - 78f
8:20pm 7 9 mph 1009.7mb - 78f
8:10pm 4 9 mph 1009.5mb - 79f
8:00pm 2 7 mph 1009.5mb 85f 79f
7:50pm 7 13 mph 1009.4mb - 79f
7:40pm 4 9 mph 1009mb - 78f
7:30pm 4 11 mph 1008.8mb - 78f
7:20pm 4 7 mph 1008.8mb - 78f
7:10pm 4 7 mph 1008.8mb - 78f
7:00pm 7 9 mph 1008.8mb 86f 78f
6:50pm 7 9 mph 1008.9mb - 78f
6:40pm 4 7 mph 1008.9mb - 78f
6:30pm 4
mph
1008.8mb - 78f
6:20pm 4 7 mph 1008.6mb - 78f
6:10pm 2 7 mph 1008.5mb - 78f
6:00pm 2 4 mph 1008.2mb 86f 78f
5:50pm 2 4 mph 1008.1mb - 77f
5:40pm 7 9 mph 1007.9mb - 77f
5:30pm 4 7 mph 1007.8mb - 77f
5:20pm 4 7 mph 1007.6mb - 77f
5:10pm 7 9 mph 1007.4mb - 77f
5:00pm 4 7 mph 1007.4mb 85f 77f
4:50pm 4 7 mph 1007.5mb - 76f
4:40pm 4 7 mph 1007.7mb - 77f
4:30pm 7 9 mph 1007.7mb - 77f
4:20pm 7 9 mph 1007.8mb - 77f
4:10pm 9 13 mph 1007.9mb - 78f
4:00pm 9 20 mph 1007.7mb 86f 78f
3:50pm 16 22 mph 1007.4mb - 79f
3:40pm 13 22 mph 1007.1mb - 80f
3:30pm 16 22 mph 1006.6mb - 83f
3:20pm 16 25 mph 1006.5mb - 88f
3:10pm 16 22 mph 1006.4mb - 88f
3:00pm 16 25 mph 1006.4mb 86f 89f
2:50pm 13 20 mph 1006.5mb - 88f
2:40pm 13 18 mph 1006.7mb - 88f
2:30pm 16 22 mph 1006.8mb - 88f
2:20pm 16 22 mph 1006.9mb - 87f
2:10pm 13 20 mph 1007mb - 87f
2:00pm 13 20 mph 1007.1mb 86f 87f
1:50pm 11 16 mph 1007.3mb - 87f
1:40pm 16 20 mph 1007.5mb - 86f
1:30pm 16 20 mph 1007.6mb - 86f
1:20pm 16 20 mph 1007.9mb - 86f
1:10pm 16 20 mph 1008mb - 85f
1:00pm 16 20 mph 1008.1mb 86f 85f
12:50pm 13 18 mph 1008.3mb - 85f
12:40pm 11 16 mph 1008.5mb - 85f
12:30pm 9 16 mph 1008.7mb - 85f
12:20pm 11 18 mph 1008.8mb - 84f
12:10pm 11 16 mph 1008.9mb - 84f
12:00pm 13 16 mph 1009mb 86f 83f
11:50am 11 16 mph 1009.1mb - 82f
11:40am 11 16 mph 1009.1mb - 82f
11:30am 11 16 mph 1009.2mb - 82f
11:20am 11 16 mph 1009.2mb - 82f
11:10am 11 16 mph 1009.2mb - 81f
11:00am 9 13 mph 1009.3mb 86f 81f
10:50am 9 13 mph 1009.4mb - 80f
10:40am 9 13 mph 1009.6mb - 80f
10:30am 9 11 mph 1009.5mb - 80f
10:20am 9 13 mph 1009.5mb - 79f
10:10am 7 9 mph 1009.5mb - 79f
10:00am 9 11 mph 1009.6mb 86f 79f
9:50am 9 11 mph 1009.6mb - 79f
9:40am 9 11 mph 1009.6mb - 79f
9:30am 9 13 mph 1009.6mb - 79f
9:20am 9 11 mph 1009.6mb - 79f
9:10am 9 13 mph 1009.7mb - 79f
9:00am 9 13 mph 1009.7mb 86f 79f
8:50am 7 9 mph 1009.8mb - 78f
8:40am 7 9 mph 1009.9mb - 78f
8:30am 7 9 mph 1009.9mb - 78f
8:20am 7 9 mph 1009.9mb - 77f
8:10am 9
mph
1009.9mb - 77f
8:00am 9 11 mph 1009.8mb 86f 77f
7:50am 7 9 mph 1009.7mb - 77f
7:40am 7 9 mph 1009.7mb - 77f
7:30am 7 9 mph 1009.5mb - 77f
7:20am 7
mph
1009.5mb - 76f
7:10am 7 9 mph 1009.4mb - 76f
7:00am 7 9 mph 1009.5mb 86f 76f
6:50am 9
mph
1009.4mb - 76f
6:40am 7 9 mph 1009.4mb - 77f
6:30am 7 9 mph 1009.5mb - 76f
6:20am 7 9 mph 1009.3mb - 76f
6:10am 7 9 mph 1009.2mb - 76f
6:00am 7 9 mph 1009.2mb 86f 76f
5:50am 9
mph
1009.3mb - 76f
5:40am 7 9 mph 1009.3mb - 76f
5:30am 7 9 mph 1009.3mb - 76f
5:20am 7 9 mph 1009.3mb - 76f
5:10am 7 9 mph 1009.2mb - 76f
5:00am 7 9 mph 1009.2mb 86f 76f
4:50am 7 9 mph 1009.3mb - 77f
4:40am 7 9 mph 1009.4mb - 76f
4:30am 7 9 mph 1009.5mb - 77f
4:20am 7 9 mph 1009.5mb - 77f
4:10am 9
mph
1009.6mb - 77f
4:00am 9
mph
1009.7mb 86f 77f
3:50am 9 11 mph 1009.7mb - 77f
3:40am 9 11 mph 1009.8mb - 77f
3:30am 7 9 mph 1009.8mb - 77f
3:20am 9 11 mph 1009.8mb - 77f
3:10am 7 11 mph 1009.9mb - 77f
3:00am 7 9 mph 1010mb 86f 77f
2:50am 7 9 mph 1009.9mb - 77f
2:40am 7 9 mph 1010mb - 78f
2:30am 7 9 mph 1010.1mb - 78f
2:20am 7 9 mph 1010.1mb - 78f
2:10am 4 7 mph 1010.1mb - 78f
2:00am 4 7 mph 1010mb 86f 78f
1:50am 4 7 mph 1010.1mb - 78f
1:40am 7 9 mph 1010.2mb - 78f
1:30am 7 9 mph 1010.3mb - 78f
1:20am 7 9 mph 1010.4mb - 79f
1:10am 7 9 mph 1010.5mb - 79f
1:00am 7 9 mph 1010.4mb 86f 79f
12:50am 7 9 mph 1010.4mb - 79f
12:40am 7 9 mph 1010.5mb - 79f
12:30am 7 9 mph 1010.5mb - 79f
12:20am 7
mph
1010.6mb - 79f
12:10am 7 9 mph 1010.6mb - 79f
12:00am 7
mph
1010.7mb 86f 79f
Sat 08/20 11:50pm 7 9 mph 1010.7mb - 79f
11:40pm 7 9 mph 1010.8mb - 80f
11:30pm 7 9 mph 1010.8mb - 80f
11:20pm 7 9 mph 1010.8mb - 80f
11:10pm 7 9 mph 1010.8mb - 80f
11:00pm 7 9 mph 1010.8mb 86f 80f
10:50pm 9
mph
1010.7mb - 80f
10:40pm 9 11 mph 1010.6mb - 80f
10:30pm 7 11 mph 1010.7mb - 80f
10:20pm 7 9 mph 1010.7mb - 80f
10:10pm 4 7 mph 1010.8mb - 81f
10:00pm 7 9 mph 1010.8mb 87f 81f
9:50pm 9
mph
1010.6mb - 82f
9:40pm 9 11 mph 1010.6mb - 82f
9:30pm 9 11 mph 1010.6mb - 82f
9:20pm 9 11 mph 1010.5mb - 82f
9:10pm 9
mph
1010.4mb - 83f
9:00pm 9
mph
1010.3mb 87f 83f
8:50pm 7 9 mph 1010.2mb - 83f
8:40pm 7 9 mph 1010.1mb - 83f
8:30pm 7 9 mph 1010.1mb - 83f
8:20pm 7 9 mph 1010.1mb - 84f
8:10pm 7 9 mph 1010.2mb - 85f
8:00pm 9
mph
1010.1mb 87f 85f
7:50pm 9
mph
1010mb - 86f
7:40pm 7 9 mph 1010mb - 86f
7:30pm 7 9 mph 1009.9mb - 87f
7:20pm 7 9 mph 1009.9mb - 87f
7:10pm 9 11 mph 1009.8mb - 88f
7:00pm 7 11 mph 1009.9mb 87f 88f
6:50pm 9 13 mph 1010mb - 88f
6:40pm 9 13 mph 1009.9mb - 88f
6:30pm 9 11 mph 1009.9mb - 89f
6:20pm 9 11 mph 1009.9mb - 89f
6:10pm 9 11 mph 1009.9mb - 89f
6:00pm 9 11 mph 1010mb 87f 89f
5:50pm 9 11 mph 1010.2mb - 89f
5:40pm 9 13 mph 1010.3mb - 89f
5:30pm 11 13 mph 1010.3mb - 89f
5:20pm 9 13 mph 1010.3mb - 89f
5:10pm 9 13 mph 1010.4mb - 89f
5:00pm 9 13 mph 1010.4mb 87f 89f
4:50pm 9 13 mph 1010.4mb - 89f
4:40pm 9 13 mph 1010.4mb - 89f
4:30pm 9 11 mph 1010.4mb - 89f
4:20pm 4 13 mph 1010.5mb - 89f
4:10pm 9 13 mph 1010.5mb - 89f
4:00pm 7 9 mph 1010.5mb 87f 89f
3:50pm 9 13 mph 1010.6mb - 88f
3:40pm 9 13 mph 1010.7mb - 88f
3:30pm 7 16 mph 1010.7mb - 88f
3:20pm 9 18 mph 1010.8mb - 88f
3:10pm 9 11 mph 1010.9mb - 88f
3:00pm 9 13 mph 1011mb 87f 88f
2:50pm 9 13 mph 1011.1mb - 88f
2:40pm 9 13 mph 1011.2mb - 88f
2:30pm 9 13 mph 1011.2mb - 87f
2:20pm 7 11 mph 1011.3mb - 87f
2:10pm 9 13 mph 1011.4mb - 87f
2:00pm 9 13 mph 1011.5mb 87f 87f
1:50pm 7 11 mph 1011.6mb - 87f
1:40pm 9 13 mph 1011.6mb - 87f
1:30pm 7 11 mph 1011.7mb - 87f